Wind_Speed
27 27 28 29 29 29 28 28 27 27 26 25 25 23 21 21 21 21 19 19 17 16 16 17 17 17 16 14 14 13 12 12 12 12 12 12 11 11 10 11 11 10 9 9
29 28 28 29 30 29 28 28 27 27 25 25 24 24 23 22 22 20 20 19 18 18 18 18 17 16 16 14 14 13 12 12 12 12 12 12 13 12 12 11 11 11 11 10
29 28 30 30 28 29 28 27 27 27 27 26 26 25 24 24 23 21 20 20 20 21 20 19 17 16 16 15 14 14 14 14 13 13 13 13 13 14 14 13 12 12 12 12
28 29 30 28 28 28 28 28 26 25 26 27 25 24 24 25 23 22 22 22 21 21 20 19 18 17 16 15 15 15 15 15 15 15 15 15 15 15 15 15 15 14 14 14
28 29 27 26 28 27 28 27 26 25 25 26 26 25 25 25 25 24 24 23 22 22 21 20 19 17 17 17 16 16 16 15 16 16 17 17 17 17 17 16 16 16 16 16
29 30 29 26 26 27 28 28 26 25 24 24 25 26 25 24 25 25 24 22 22 21 20 20 20 18 18 18 17 17 17 17 17 17 18 18 18 18 18 18 17 18 17 17
30 30 30 27 26 26 27 27 25 25 24 24 24 24 24 23 21 21 21 22 22 22 21 20 19 18 18 18 18 18 18 18 18 18 18 19 19 19 19 19 19 19 19 18
29 29 28 27 26 26 26 24 24 25 25 25 25 24 23 22 22 22 22 22 22 22 21 21 19 19 19 19 19 19 18 18 19 18 18 19 19 19 20 20 20 19 19 19
27 28 27 27 26 25 25 24 24 24 25 26 25 23 23 23 24 24 24 22 21 20 20 20 19 19 19 19 19 19 19 19 18 19 19 19 19 19 19 19 20 20 20 20
26 26 27 26 26 24 24 25 24 23 23 24 25 25 24 24 24 23 23 24 22 21 20 20 20 20 20 21 20 20 19 19 19 18 18 18 19 19 19 19 19 19 19 20
24 26 26 25 24 25 25 25 25 24 24 24 25 25 25 24 23 24 24 23 22 22 22 21 21 21 21 21 21 21 20 20 20 19 18 19 19 20 20 20 20 19 19 19
25 25 24 24 25 26 26 25 24 24 24 24 23 23 23 23 22 23 24 23 23 23 23 23 22 22 22 21 21 21 21 20 21 21 20 20 20 21 21 21 21 21 21 20
24 25 24 23 23 23 24 24 23 22 23 23 22 22 23 24 23 22 23 23 23 23 23 22 22 22 22 22 21 21 21 21 20 20 21 21 22 21 21 21 21 20 20 21
21 21 22 22 21 21 22 22 22 22 23 22 21 21 22 23 23 22 23 23 23 23 23 23 22 22 22 23 22 21 21 20 20 21 21 21 21 20 20 20 20 21 21 21
17 18 19 19 19 20 20 20 21 21 21 21 21 21 21 21 21 21 22 22 23 23 22 22 21 21 22 22 21 21 20 21 21 20 20 20 20 20 20 20 21 21 21 22
15 15 16 17 17 18 19 19 19 19 18 18 18 19 20 20 20 21 22 22 21 21 20 20 20 20 20 20 20 20 21 21 21 21 20 21 20 21 21 21 21 21 21 21
14 14 14 15 16 16 17 18 18 17 17 17 17 19 20 20 21 21 22 21 20 20 19 19 19 19 19 20 20 20 21 21 21 21 21 21 21 22 22 22 22 22 21 21
13 13 13 12 13 13 15 15 16 16 16 17 16 17 17 17 18 19 20 20 19 19 19 19 18 19 19 19 19 19 19 19 20 20 21 21 21 21 22 21 21 21 20 19
12 11 11 11 11 12 12 13 14 14 15 16 17 17 17 17 17 18 18 19 19 19 18 19 19 19 19 19 19 19 19 19 19 20 20 20 20 20 20 19 19 19 20 20
11 10 10 9 10 11 11 12 12 11 12 14 15 15 15 16 17 17 18 18 18 18 19 19 19 19 19 19 19 19 19 19 20 20 20 20 20 20 20 20 20 20 20 20
10 10 9 9 10 10 11 12 11 11 11 12 13 13 14 14 15 16 16 17 17 18 18 18 18 19 19 19 20 19 20 20 20 21 21 21 21 21 21 21 21 21 21 21
10 10 10 10 10 11 11 11 12 11 12 12 12 13 14 15 15 16 16 16 17 17 17 18 18 19 19 19 19 19 20 21 21 22 22 22 22 22 22 22 22 22 21 21
11 11 11 11 12 12 12 12 12 11 11 11 12 13 14 15 16 16 17 17 17 17 18 18 19 19 19 19 19 20 20 21 21 21 21 21 21 21 21 21 21 22 22 22
11 12 12 12 12 13 13 12 12 12 12 11 12 12 13 14 15 16 17 18 18 18 18 19 19 19 20 20 20 20 20 20 20 21 21 20 20 20 21 22 22 23 23 23
10 11 11 12 12 12 12 12 12 12 12 12 13 13 13 14 14 15 16 16 16 17 17 17 17 18 19 19 18 18 19 19 19 19 19 20 21 21 22 23 24 24 23 24
10 10 10 11 11 12 12 12 12 12 12 13 13 13 13 14 13 13 14 14 14 15 15 16 15 16 16 17 18 19 19 20 20 20 21 21 21 21 22 23 24 24 24 25
10 11 10 11 11 12 12 12 12 13 13 14 14 13 13 13 14 14 13 13 14 15 15 16 16 16 16 16 17 17 18 19 19 20 20 21 21 22 22 23 23 24 24 24
Wind_Direction
228 225 226 227 228 230 234 237 240 241 246 251 252 253 259 266 265 266 268 271 274 279 282 287 288 289 287 287 284 275 265 260 260 261 263 263 265 268 269 272 270 270 273 277
230 228 227 229 228 229 233 236 240 243 245 249 253 255 260 266 268 267 269 269 273 278 284 287 287 287 285 280 276 271 263 259 259 260 262 264 265 267 270 272 271 269 271 276
228 229 229 230 229 230 232 235 241 245 247 250 254 260 261 262 267 271 271 271 273 274 278 280 281 282 282 276 270 266 262 259 260 260 261 265 267 269 270 271 270 268 267 269
228 229 230 230 230 231 233 240 244 249 249 252 257 257 260 260 262 267 268 269 271 273 275 275 276 276 275 273 270 268 264 260 260 261 263 263 265 266 268 268 267 269 268 267
229 230 233 233 232 235 238 241 245 250 251 253 256 256 258 257 259 264 267 269 269 269 271 272 272 270 271 272 269 267 265 263 261 261 262 261 262 263 263 263 266 268 269 269
231 232 235 237 239 241 243 243 244 251 253 254 256 256 256 258 260 262 263 266 269 271 270 268 265 265 267 267 268 269 268 266 264 262 262 262 260 261 261 262 265 267 268 269
231 234 237 238 239 240 242 243 244 248 251 255 256 256 258 258 258 261 264 266 267 269 269 266 262 264 265 265 266 269 269 267 265 263 261 261 260 260 261 262 264 265 265 267
232 236 237 236 238 240 242 242 245 247 251 256 258 258 259 260 260 261 263 264 264 263 265 263 261 261 261 261 263 264 265 265 266 264 261 261 262 262 261 262 262 262 263 264
234 236 236 237 238 241 242 245 247 248 251 256 259 261 263 263 263 262 261 263 261 260 261 259 259 260 260 260 260 261 261 263 265 262 262 263 262 262 261 262 262 262 262 263
235 236 238 240 240 241 244 247 249 249 250 255 259 262 262 263 261 261 261 261 261 260 261 260 261 263 263 261 260 259 259 261 262 262 261 262 263 264 264 263 264 265 263 263
236 239 240 242 243 243 246 247 247 248 251 255 257 260 261 261 261 260 260 261 261 261 261 262 264 263 263 259 257 257 258 260 261 260 260 261 264 265 265 265 264 264 264 265
236 238 242 243 245 243 244 246 247 249 249 250 254 259 259 261 261 260 259 261 262 263 262 263 264 262 260 257 256 257 258 260 261 260 260 262 263 264 264 264 264 262 262 264
239 240 240 241 245 247 246 247 249 249 247 249 254 258 259 259 259 260 260 261 264 264 263 262 262 260 257 256 256 257 259 260 261 260 260 261 262 264 264 264 264 263 263 264
239 240 240 242 247 249 250 251 253 251 247 248 252 256 260 258 257 259 260 262 264 265 262 261 260 258 256 255 255 258 259 259 260 259 259 261 262 264 265 265 266 265 265 264
240 240 241 242 244 248 250 250 250 246 244 251 252 255 257 257 256 257 260 263 266 264 262 261 258 257 256 255 255 257 258 258 260 261 260 262 262 263 266 267 266 265 264 264
243 245 242 241 239 243 244 245 247 243 245 249 251 256 256 255 257 259 259 263 263 263 263 262 258 257 256 255 256 257 257 257 258 258 260 262 262 263 265 267 267 265 264 264
248 250 246 246 242 248 247 246 247 247 248 250 253 257 258 258 259 261 260 260 259 260 261 261 260 257 257 257 256 256 258 258 257 258 259 261 263 264 265 265 267 267 266 266
252 251 248 251 250 246 245 248 247 247 248 252 253 254 256 258 260 263 262 259 258 259 259 259 259 259 258 258 257 258 257 257 258 259 261 262 264 265 265 265 265 266 266 268
246 249 249 251 251 249 249 247 246 250 253 254 256 256 257 258 261 262 260 257 258 258 259 260 260 259 259 257 257 257 253 256 260 262 265 265 265 266 264 262 263 266 268 269
238 241 243 249 253 250 247 244 244 246 251 251 253 255 255 257 260 260 258 257 257 257 257 258 258 259 259 259 258 255 255 259 262 265 267 267 265 264 262 262 264 265 267 268
234 236 241 248 249 250 252 252 253 252 252 255 256 256 258 259 260 260 259 257 257 257 257 259 261 262 261 258 256 256 257 259 262 264 267 267 264 262 261 260 262 265 266 267
240 240 245 247 250 252 255 258 257 257 258 261 261 260 260 260 262 263 263 262 260 259 261 261 262 262 261 259 258 259 260 262 264 266 267 265 261 261 261 261 262 265 267 268
242 243 248 252 253 256 258 259 257 257 262 266 268 266 263 262 261 262 263 262 262 263 263 262 262 262 260 259 261 261 262 264 266 267 266 264 260 260 262 264 265 267 269 270
242 244 247 253 255 257 260 263 263 261 265 268 269 270 269 267 264 263 263 261 261 262 263 263 262 260 259 260 261 262 263 265 266 267 265 261 259 262 264 265 267 268 270 272
244 246 252 256 257 258 259 261 264 266 265 268 271 272 272 272 271 267 266 264 260 258 259 260 260 261 261 260 260 260 262 265 267 267 265 263 264 265 265 267 269 271 272 273
255 254 258 261 263 264 264 264 266 269 270 269 270 271 273 275 276 278 274 268 267 264 262 264 263 267 267 263 263 262 263 266 267 265 263 265 266 267 268 270 273 274 276 277
266 266 267 266 267 268 269 269 268 267 267 268 270 272 274 277 280 280 278 274 272 272 272 270 270 270 269 267 265 266 269 271 270 268 267 267 267 268 270 273 275 275 276 277
Height
5775 5779 5781 5784 5787 5791 5793 5795 5798 5801 5803 5805 5806 5808 5809 5810 5811 5811 5811 5812 5812 5812 5812 5811 5810 5809 5809 5808 5808 5807 5807 5809 5809 5810 5811 5811 5811 5811 5811 5811 5810 5810 5809 5809
5769 5773 5775 5778 5782 5785 5787 5790 5793 5795 5798 5799 5801 5802 5803 5805 5805 5805 5805 5806 5806 5806 5806 5806 5805 5805 5804 5804 5803 5803 5804 5805 5806 5806 5807 5807 5807 5807 5807 5807 5807 5806 5806 5806
5763 5766 5769 5772 5776 5779 5782 5784 5787 5789 5792 5794 5795 5795 5797 5798 5799 5800 5800 5800 5800 5800 5800 5800 5800 5799 5799 5799 5799 5799 5799 5800 5802 5802 5803 5803 5803 5803 5804 5803 5803 5803 5803 5802
5756 5760 5762 5769 5771 5773 5775 5778 5780 5783 5785 5787 5789 5789 5789 5791 5793 5794 5794 5793 5793 5794 5794 5794 5794 5794 5794 5794 5795 5795 5795 5796 5797 5798 5798 5798 5799 5799 5799 5799 5799 5799 5799 5798
5750 5753 5757 5761 5764 5766 5768 5771 5774 5776 5778 5780 5782 5782 5784 5785 5786 5787 5787 5787 5787 5787 5787 5787 5788 5788 5789 5790 5790 5790 5791 5791 5792 5793 5793 5793 5794 5794 5794 5794 5794 5794 5794 5794
5744 5747 5750 5756 5758 5760 5763 5764 5768 5770 5772 5774 5775 5776 5778 5778 5779 5780 5781 5781 5781 5781 5781 5781 5782 5783 5783 5784 5785 5785 5785 5786 5786 5787 5788 5788 5788 5789 5789 5789 5789 5789 5789 5789
5737 5740 5744 5749 5752 5754 5757 5760 5762 5764 5766 5767 5768 5770 5771 5771 5772 5773 5774 5774 5775 5775 5775 5775 5775 5776 5777 5778 5779 5779 5780 5780 5781 5781 5782 5782 5783 5783 5783 5783 5783 5784 5784 5783
5731 5734 5740 5742 5745 5748 5751 5753 5755 5757 5759 5760 5762 5763 5763 5764 5765 5766 5767 5767 5768 5768 5768 5769 5769 5770 5771 5772 5773 5773 5774 5774 5775 5775 5775 5776 5776 5776 5777 5777 5777 5778 5778 5777
5726 5730 5733 5736 5739 5742 5744 5746 5748 5750 5752 5753 5754 5755 5756 5757 5759 5760 5760 5760 5760 5761 5762 5762 5763 5764 5765 5765 5766 5767 5767 5768 5769 5769 5769 5769 5770 5770 5770 5770 5770 5771 5771 5771
5720 5722 5726 5729 5733 5735 5737 5738 5740 5742 5744 5746 5747 5748 5749 5750 5752 5753 5753 5754 5754 5755 5755 5756 5757 5757 5758 5759 5759 5760 5761 5762 5762 5762 5763 5763 5764 5764 5764 5764 5765 5765 5765 5765
5715 5717 5720 5724 5726 5728 5730 5731 5732 5734 5736 5737 5739 5740 5741 5743 5744 5745 5745 5746 5747 5748 5749 5749 5750 5750 5751 5752 5752 5753 5754 5755 5756 5756 5756 5757 5758 5758 5758 5758 5758 5759 5759 5759
5709 5712 5715 5718 5720 5722 5723 5724 5725 5727 5728 5729 5731 5732 5733 5735 5736 5737 5737 5738 5739 5740 5741 5741 5742 5743 5743 5744 5746 5747 5747 5748 5749 5750 5750 5751 5751 5751 5751 5752 5752 5752 5752 5752
5704 5706 5709 5711 5713 5714 5716 5717 5719 5721 5721 5722 5723 5724 5725 5727 5728 5729 5730 5730 5731 5732 5732 5733 5734 5735 5736 5737 5738 5739 5740 5741 5741 5742 5743 5744 5744 5744 5745 5745 5745 5745 5745 5745
5699 5701 5703 5705 5706 5708 5709 5711 5712 5714 5714 5715 5716 5717 5718 5719 5720 5721 5722 5723 5723 5724 5724 5725 5726 5727 5728 5729 5731 5732 5733 5734 5735 5735 5736 5736 5737 5737 5738 5738 5738 5738 5738 5738
5695 5696 5698 5700 5701 5703 5704 5705 5706 5707 5708 5709 5710 5711 5712 5713 5714 5714 5715 5716 5716 5716 5716 5717 5718 5719 5720 5722 5724 5725 5726 5727 5728 5728 5729 5730 5730 5730 5731 5731 5731 5731 5731 5731
5690 5692 5693 5694 5696 5697 5698 5699 5700 5701 5701 5703 5703 5704 5705 5706 5707 5708 5708 5709 5709 5709 5710 5710 5711 5712 5714 5715 5716 5718 5719 5720 5721 5722 5722 5723 5723 5724 5724 5724 5724 5724 5724 5724
5686 5687 5688 5689 5690 5690 5691 5693 5694 5695 5696 5698 5698 5698 5699 5700 5701 5701 5702 5702 5703 5703 5704 5704 5705 5706 5707 5708 5710 5711 5712 5712 5713 5714 5715 5716 5716 5716 5716 5717 5717 5717 5717 5717
5682 5683 5684 5685 5685 5685 5686 5687 5688 5690 5692 5692 5692 5693 5693 5694 5695 5695 5695 5696 5697 5697 5698 5698 5700 5700 5701 5702 5703 5704 5705 5706 5706 5707 5708 5708 5709 5709 5709 5709 5710 5710 5710 5710
5678 5679 5680 5681 5681 5681 5682 5683 5684 5685 5686 5686 5687 5687 5688 5689 5689 5690 5690 5690 5691 5692 5692 5693 5694 5694 5695 5695 5696 5697 5698 5699 5700 5700 5700 5701 5701 5701 5702 5702 5703 5703 5703 5703
5675 5676 5677 5677 5678 5678 5679 5680 5680 5681 5681 5681 5682 5682 5683 5683 5684 5685 5685 5685 5686 5686 5687 5687 5688 5688 5689 5689 5690 5691 5691 5692 5693 5693 5693 5694 5694 5695 5695 5696 5696 5696 5696 5696
5672 5673 5674 5674 5675 5675 5676 5676 5677 5677 5677 5677 5678 5679 5679 5679 5680 5680 5680 5681 5681 5681 5681 5681 5682 5682 5682 5683 5683 5684 5684 5685 5686 5686 5686 5687 5687 5687 5688 5689 5689 5689 5689 5690
5668 5669 5670 5671 5672 5672 5673 5673 5673 5674 5674 5674 5675 5675 5675 5675 5675 5675 5675 5675 5675 5675 5676 5676 5676 5676 5676 5676 5676 5677 5678 5679 5679 5679 5679 5679 5679 5680 5680 5681 5682 5682 5682 5682
5666 5667 5667 5668 5668 5669 5669 5670 5670 5670 5670 5671 5671 5670 5670 5671 5671 5671 5671 5670 5670 5670 5670 5670 5670 5670 5670 5670 5670 5671 5672 5672 5672 5672 5672 5672 5672 5672 5673 5674 5674 5675 5675 5675
5662 5663 5664 5664 5665 5665 5666 5666 5666 5666 5666 5667 5666 5666 5666 5666 5666 5665 5665 5665 5665 5665 5664 5664 5664 5664 5664 5664 5665 5665 5665 5665 5665 5665 5665 5665 5665 5666 5666 5667 5667 5668 5668 5668
5659 5660 5661 5661 5661 5662 5662 5662 5663 5663 5662 5662 5662 5662 5662 5661 5661 5660 5660 5659 5659 5659 5659 5659 5658 5658 5658 5658 5658 5659 5659 5659 5659 5659 5658 5659 5659 5659 5660 5660 5660 5660 5659 5659
5656 5656 5657 5657 5658 5658 5658 5658 5659 5658 5658 5658 5658 5658 5657 5657 5656 5655 5655 5654 5654 5654 5654 5654 5653 5653 5653 5653 5653 5653 5653 5653 5653 5653 5652 5653 5653 5653 5653 5652 5652 5652 5651 5651
5652 5653 5653 5653 5654 5654 5654 5654 5654 5654 5654 5654 5653 5653 5653 5652 5652 5651 5650 5650 5650 5649 5649 5649 5648 5648 5648 5648 5647 5647 5647 5647 5646 5646 5645 5645 5645 5645 5645 5645 5644 5644 5643 5642